Regional Weather Roundup
Issued by NWS Kansas City/Pleasant Hill, MO

Home | Current Version | Previous Version | Text Only | Print | Product List | Glossary On
Versions: 1 2 3 4 5 6 7 8 9 10 11 12 13 14 15 16 17 18 19 20 21 22 23 24 25 26 27 28 29 30 31 32 33 34 35 36 37 38 39 40 41 42 43 44 45 46 47 48 49 50
000
ASUS43 KEAX 020111
RWREAX

WEATHER ROUNDUP FOR EASTERN KANSAS AND NORTHWEST MISSOURI
NATIONAL WEATHER SERVICE KANSAS CITY/PLEASANT HILL MO
800 PM CDT WED JUL 01 2015

KSZ040-057-103>105-MOZ028-029-037-043-020200-
...KANSAS CITY METROPOLITAN AREA...

CITY           SKY/WX    TMP DP  RH WIND       PRES   REMARKS
K.C. INTL      PTCLDY    82  75  79 NE13      29.80F
K.C. DOWNTOWN  PTCLDY    80  75  84 E7        29.78R
LEES SUMMIT    NOT AVBL
OLATHE - IXD   CLEAR     86  75  69 S5        29.79S HX  95
OLATHE - OJC   PTCLDY    84  76  76 S7        29.78F HX  93
LAWRENCE       CLEAR     85  76  74 NE7       29.77S HX  94

$$

MOZ001>008-011>017-020>025-030>033-038>040-044>046-053-054-020200-
...NORTHERN AND CENTRAL MISSOURI...

CITY           SKY/WX    TMP DP  RH WIND       PRES   REMARKS
ST. JOSEPH     PTCLDY    82  73  74 E7        29.80F
MOSBY          CLOUDY    81  73  78 E3        29.81R
HARRISONVILLE  PTCLDY    86  77  74 S6        29.81S HX  97
WARRENSBURG    MOCLDY    77  73  88 CALM      29.79R
WHITEMAN AFB   TSTM      79  75  86 SE6       29.75F
CLINTON        MOCLDY    81  79  94 CALM      29.79F
SEDALIA        PTCLDY    78  74  87 E6        29.80F
WARSAW         FAIR      77  77 100 CALM      29.80F
CHILLICOTHE      N/A     79  72  79 NE9       29.84S
KIRKSVILLE     CLOUDY    74  68  81 NE12      29.88F

$$

MOZ041-047>049-056>058-063>065-088>090-097-020200-
...EASTERN AND SOUTHERN MISSOURI...

CITY           SKY/WX    TMP DP  RH WIND       PRES   REMARKS
ST. LOUIS INTL TSTM      72  66  83 S9        29.89S
SPIRIT OF STL  CLOUDY    77  72  84 NE8       29.85S
COLUMBIA       MOCLDY    76  71  85 SE14      29.79F THUNDER
JEFFERSON CITY CLOUDY    79  72  79 E8        29.80F
MEXICO         CLOUDY   N/A N/A N/A CALM      29.86F
ROLLA          MOCLDY    77  73  87 SE6       29.84F
LEBANON        MOCLDY    79  73  83 SE5       29.84F
OSAGE BEACH    PTCLDY    79  72  78 S7        29.82F
SPRINGFIELD    PTCLDY    82  74  76 S10       29.85R
BRANSON        PTCLDY    81  73  78 S6        29.88F
JOPLIN         MOCLDY    83  73  72 S12       29.82S
WEST PLAINS    PTCLDY    78  73  84 S5        29.90F
MALDEN         PTCLDY    82  72  69 S3        29.91R

$$

IAZ060-094-KSZ022-034>040-054-083-096-NEZ052-066-093-020200-
...KANSAS...SOUTHEAST NEBRASKA AND IOWA...

CITY           SKY/WX    TMP DP  RH WIND       PRES   REMARKS
TOPEKA         CLEAR     85  76  74 NE12      29.78R HX  94
MANHATTAN      CLEAR     90  69  50 E8        29.78R HX  94
EMPORIA        CLEAR     87  72  60 S7        29.77F HX  93
CHANUTE        PTCLDY    86  73  65 S13       29.78S HX  93
WICHITA        PTCLDY    95  66  38 NW6       29.75R HX  98
OMAHA          MOCLDY    78  68  71 E12       29.88R
LINCOLN        PTCLDY    81  70  69 E12       29.86R
FALLS CITY     CLEAR     82  72  71 E5        29.81F
LAMONI         PTCLDY    73  67  81 NE9       29.88S
DES MOINES     CLOUDY    72  58  61 E9        29.92R

$$



USA.gov is the U.S. government's official web portal to all federal, state and local government web resources and services.